STAR ONE D2 (49055 NORAD) Tracking and Keplerian Element Data

This shows tracking and keplerian element data for the satellite.

Feedback or suggestion? Click here.




ElementValue
Catalog49055
NameSTAR ONE D2
Epoch Orbit54
Epoch Day261.20204206
Epoch Year2021
RAAN195.2474
Inclination0.0308
Eccentricity0.0002677
Argument of Perigee9.4203
Mean Anonmoly155.3195
Mean Motion1.00272345
Decay Rate-2.89E-06
L11 49055U 21069A 21261.20204206 -.00000289 00000-0 00000-0 0 9999
L22 49055 0.0308 195.2474 0002677 9.4203 155.3195 1.00272345 540

Live tracking and technical data element details for STAR ONE D2 (NORAD 49055). STAR ONE D2 can be tracked NOW for your location showing map with azimuth and elevation plus other details from your city location.

Track the satellite on the map from your city or location and see movement details for azimuth, elevation, latitude, longitude, range, height, and movement on the map or in text.







IsCatalogInMostPopularTable: catalog: 49055, numindb: 13
Update: records affected: 1



GetName: 49055 STAR ONE D2

Hit Count: updated at: Fri, 24 Sep 2021 18:22:56 GMT